datetime,ave air temp
2006-10-18,39.92
2006-10-19,51.26
2006-10-20,49.28
2006-10-21,42.26
2006-10-22,44.78
2006-10-23,42.8
2006-10-24,35.78
2006-10-25,33.98
2006-10-26,39.74
2006-10-27,52.16
2006-10-28,54.32
2006-10-29,39.02
2006-10-30,29.12
2006-10-31,34.88
2006-11-01,34.88
2006-11-02,43.34
2006-11-03,44.78
2006-11-04,46.76
2006-11-05,50.36
2006-11-06,55.94
2006-11-07,55.04
2006-11-08,35.24
2006-11-09,31.82
2006-11-10,29.84
2006-11-11,31.82
2006-11-12,28.22
2006-11-13,37.22
2006-11-14,34.16
2006-11-15,39.56
2006-11-16,44.24
2006-11-17,42.8
2006-11-18,43.88
2006-11-19,45.86
2006-11-20,46.04
2006-11-21,38.12
2006-11-22,35.96
2006-11-23,28.76
2006-11-24,32.54
2006-11-25,31.46
2006-11-26,31.82
2006-11-27,22.46
2006-11-28,18.32
2006-11-29,21.38
2006-11-30,37.4
2006-12-01,25.88
2006-12-02,28.04
2006-12-03,37.94
2006-12-04,37.58
2006-12-05,41.36
2006-12-06,41.9
2006-12-07,37.4
2006-12-08,33.98
2006-12-09,39.74
2006-12-10,34.16
2006-12-11,35.96
2006-12-12,40.46
2006-12-13,42.08
2006-12-14,44.96
2006-12-15,24.08
2006-12-16,19.76
2006-12-17,21.74
2006-12-18,31.82
2006-12-19,36.32
2006-12-20,34.16
2006-12-21,33.8
2006-12-22,29.84
2006-12-23,35.78
2006-12-24,38.66
2006-12-25,37.4
2006-12-26,34.7
2006-12-27,26.24
2006-12-28,21.2
2006-12-29,31.64
2006-12-30,33.44
2006-12-31,29.84
2007-01-01,33.08
2007-01-02,32.36
2007-01-03,36.32
2007-01-04,25.52
2007-01-05,23.0
2007-01-06,33.08
2007-01-07,36.5
2007-01-08,43.34
2007-01-09,34.88
2007-01-10,23.54
2007-01-11,12.92
2007-01-12,9.32
2007-01-13,19.4
2007-01-14,18.68
2007-01-15,36.32
2007-01-16,33.26
2007-01-17,25.7
2007-01-18,32.54
2007-01-19,32.9
2007-01-20,25.34
2007-01-21,26.42
2007-01-22,33.8
2007-01-23,45.5
2007-01-24,45.68
2007-01-25,36.32
2007-01-26,34.34
2007-01-27,30.2
2007-01-28,30.74
2007-01-29,33.44
2007-01-30,32.9
2007-01-31,33.98
2007-02-01,31.64
2007-02-02,44.42
2007-02-03,44.78
2007-02-04,41.9
2007-02-05,40.1
2007-02-06,33.98
2007-02-07,38.48
2007-02-08,36.14
2007-02-09,41.18
2007-02-10,41.18
2007-02-11,35.42
2007-02-12,33.44
2007-02-13,33.98
2007-02-14,35.06
2007-02-15,42.44
2007-02-16,43.16
2007-02-17,41.0
2007-02-18,29.3
2007-02-19,29.84
2007-02-20,33.44
2007-02-21,33.44
2007-02-22,29.66
2007-02-23,23.72
2007-02-24,30.02
2007-02-25,28.58
2007-02-26,25.16
2007-02-27,21.74
2007-02-28,22.64
2007-03-01,28.58
2007-03-02,36.14
2007-03-03,41.54
2007-03-04,35.6
2007-03-05,33.26
2007-03-06,35.24
2007-03-07,38.66
2007-03-08,30.38
2007-03-09,36.86
2007-03-10,39.74
2007-03-11,46.58
2007-03-12,44.96
2007-03-13,42.44
2007-03-14,43.34
2007-03-15,47.66
2007-03-16,48.56
2007-03-17,42.98
2007-03-18,41.9
2007-03-19,39.02
2007-03-20,32.54
2007-03-21,28.58
2007-03-22,38.48
2007-03-23,39.02
2007-03-24,41.54
2007-03-25,40.64
2007-03-26,35.42
2007-03-27,27.32
2007-03-28,26.96
2007-03-29,44.78
2007-03-30,42.62
2007-03-31,38.84
2007-04-01,32.9
2007-04-02,34.52
2007-04-03,44.06
2007-04-04,38.12
2007-04-05,47.12
2007-04-06,50.18
2007-04-07,42.8
2007-04-08,39.02
2007-04-09,33.8
2007-04-10,32.72
2007-04-11,33.44
2007-04-12,29.12
2007-04-13,35.96
2007-04-14,37.94
2007-04-15,30.2
2007-04-16,42.44
2007-04-17,30.38
2007-04-18,25.88
2007-04-19,30.2
2007-04-20,31.46
2007-04-21,36.5
2007-04-22,37.4
2007-04-23,38.48
2007-04-24,41.0
2007-04-25,39.2
2007-04-26,40.46
2007-04-27,49.28
2007-04-28,48.56
2007-04-29,44.42
2007-04-30,44.78
2007-05-01,41.18
2007-05-02,37.04
2007-05-03,31.28
2007-05-04,33.08
2007-05-05,33.44
2007-05-06,46.58
2007-05-07,54.14
2007-05-08,53.24
2007-05-09,51.44
2007-05-10,48.74
2007-05-11,47.48
2007-05-12,41.0
2007-05-13,42.98
2007-05-14,55.22
2007-05-15,60.08
2007-05-16,51.98
2007-05-17,48.74
2007-05-18,46.94
2007-05-19,42.26
2007-05-20,43.34
2007-05-21,32.54
2007-05-22,36.86
2007-05-23,42.98
2007-05-24,45.68
2007-05-25,50.9
2007-05-26,53.6
2007-05-27,46.04
2007-05-28,50.54
2007-05-29,59.9
2007-05-30,64.76
2007-05-31,61.7
2007-06-01,59.0
2007-06-02,57.92
2007-06-03,58.82
2007-06-04,50.9
2007-06-05,42.62
2007-06-06,36.32
2007-06-07,37.04
2007-06-08,46.58
2007-06-09,50.9
2007-06-10,47.12
2007-06-11,42.44
2007-06-12,51.98
2007-06-13,48.56
2007-06-14,49.1
2007-06-15,54.14
2007-06-16,52.16
2007-06-17,44.78
2007-06-18,55.76
2007-06-19,59.18
2007-06-20,61.34
2007-06-21,55.4
2007-06-22,51.26
2007-06-23,46.58
2007-06-24,41.0
2007-06-25,50.72
2007-06-26,63.86
2007-06-27,55.58
2007-06-28,51.08
2007-06-29,49.82
2007-06-30,53.96
2007-07-01,54.5
2007-07-02,53.6
2007-07-03,62.06
2007-07-04,71.42
2007-07-05,76.82
2007-07-06,67.28
2007-07-07,61.7
2007-07-08,64.4
2007-07-09,71.42
2007-07-10,72.5
2007-07-11,62.42
2007-07-12,65.12
2007-07-13,63.68
2007-07-14,64.22
2007-07-15,59.54
2007-07-16,62.6
2007-07-17,56.48
2007-07-18,55.58
2007-07-19,50.36
2007-07-20,52.34
2007-07-21,57.38
2007-07-22,60.8
2007-07-23,60.62
2007-07-24,61.7
2007-07-25,64.4
2007-07-26,62.6
2007-07-27,64.04
2007-07-28,62.78
2007-07-29,59.9
2007-07-30,59.18
2007-07-31,70.7
2007-08-01,77.18
2007-08-02,70.7
2007-08-03,65.48
2007-08-04,57.92
2007-08-05,55.4
2007-08-06,50.18
2007-08-07,53.78
2007-08-08,52.52
2007-08-09,52.16
2007-08-10,52.7
2007-08-11,54.86
2007-08-12,57.2
2007-08-13,59.36
2007-08-14,65.48
2007-08-15,64.94
2007-08-16,52.7
2007-08-17,49.82
2007-08-18,47.3
2007-08-19,53.42
2007-08-20,56.3
2007-08-21,57.56
2007-08-22,57.92
2007-08-23,58.64
2007-08-24,68.54
2007-08-25,65.3
2007-08-26,57.2
2007-08-27,53.42
2007-08-28,63.14
2007-08-29,71.42
2007-08-30,58.28
2007-08-31,58.46
2007-09-01,58.82
2007-09-02,57.92
2007-09-03,56.48
2007-09-04,49.46
2007-09-05,51.8
2007-09-06,55.76
2007-09-07,55.22
2007-09-08,52.34
2007-09-09,57.38
2007-09-10,69.44
2007-09-11,74.84
2007-09-12,68.0
2007-09-13,51.44
2007-09-14,44.06
2007-09-15,45.32
2007-09-16,44.42
2007-09-17,44.78
2007-09-18,42.26
2007-09-19,39.92
2007-09-20,43.7
2007-09-21,53.42
2007-09-22,44.24
2007-09-23,35.96
2007-09-24,37.76
2007-09-25,45.86
2007-09-26,53.06
2007-09-27,52.52
2007-09-28,37.04
2007-09-29,32.72
2007-09-30,37.76
2007-10-01,41.36
2007-10-02,39.74
2007-10-03,41.0
2007-10-04,34.7
2007-10-05,31.82
2007-10-06,37.94
2007-10-07,45.86
2007-10-08,45.14
2007-10-09,35.96
2007-10-10,41.54
2007-10-11,40.1
2007-10-12,42.98
2007-10-13,44.06
2007-10-14,42.62
2007-10-15,45.14
2007-10-16,39.56
2007-10-17,36.32
2007-10-18,43.7
2007-10-19,43.52
2007-10-20,34.16
2007-10-21,33.26
2007-10-22,49.46
2007-10-23,50.0
2007-10-24,46.4
2007-10-25,35.96
2007-10-26,28.4
2007-10-27,42.98
2007-10-28,42.98
2007-10-29,44.96
2007-10-30,45.5
2007-10-31,40.64
2007-11-01,40.1
2007-11-02,39.56
2007-11-03,46.76
2007-11-04,54.32
2007-11-05,51.62
2007-11-06,54.68
2007-11-07,50.72
2007-11-08,47.3
2007-11-09,37.58
2007-11-10,43.7
2007-11-11,37.04
2007-11-12,39.92
2007-11-13,43.88
2007-11-14,44.06
2007-11-15,46.94
2007-11-16,43.7
2007-11-17,48.56
2007-11-18,47.84
2007-11-19,33.8
2007-11-20,25.7
2007-11-21,25.88
2007-11-22,29.66
2007-11-23,40.82
2007-11-24,43.52
2007-11-25,34.16
2007-11-26,32.18
2007-11-27,26.6
2007-11-28,29.66
2007-11-29,27.14
2007-11-30,22.1
2007-12-01,21.92
2007-12-02,30.38
2007-12-03,39.92
2007-12-04,44.6
2007-12-05,38.12
2007-12-06,36.5
2007-12-07,30.38
2007-12-08,22.64
2007-12-09,26.42
2007-12-10,27.14
2007-12-11,27.68
2007-12-12,29.84
2007-12-13,24.98
2007-12-14,28.04
2007-12-15,32.36
2007-12-16,31.1
2007-12-17,31.64
2007-12-18,35.06
2007-12-19,32.9
2007-12-20,25.7
2007-12-21,22.28
2007-12-22,33.26
2007-12-23,42.8
2007-12-24,24.44
2007-12-25,22.64
2007-12-26,19.22
2007-12-27,19.94
2007-12-28,28.4
2007-12-29,33.26
2007-12-30,23.36
2007-12-31,23.54
2008-01-01,30.56
2008-01-02,26.24
2008-01-03,31.1
2008-01-04,33.98
2008-01-05,26.42
2008-01-06,23.18
2008-01-07,23.36
2008-01-08,29.12
2008-01-09,29.12
2008-01-10,36.68
2008-01-11,35.42
2008-01-12,36.68
2008-01-13,34.7
2008-01-14,31.82
2008-01-15,19.76
2008-01-16,21.38
2008-01-17,28.04
2008-01-18,28.58
2008-01-19,29.3
2008-01-20,25.88
2008-01-21,13.64
2008-01-22,18.5
2008-01-23,22.46
2008-01-24,23.36
2008-01-25,28.4
2008-01-26,34.34
2008-01-27,29.3
2008-01-28,18.86
2008-01-29,21.2
2008-01-30,23.0
2008-01-31,27.5
2008-02-01,24.08
2008-02-02,25.7
2008-02-03,25.52
2008-02-04,23.72
2008-02-05,32.36
2008-02-06,28.76
2008-02-07,33.62
2008-02-08,30.74
2008-02-09,34.52
2008-02-10,34.88
2008-02-11,32.18
2008-02-12,36.5
2008-02-13,24.26
2008-02-14,23.18
2008-02-15,34.34
2008-02-16,37.04
2008-02-17,42.26
2008-02-18,44.06
2008-02-19,32.9
2008-02-20,34.34
2008-02-21,32.9
2008-02-22,31.64
2008-02-23,30.38
2008-02-24,35.06
2008-02-25,36.68
2008-02-26,35.96
2008-02-27,34.16
2008-02-28,37.76
2008-02-29,37.4
2008-03-01,29.3
2008-03-02,28.94
2008-03-03,32.36
2008-03-04,27.86
2008-03-05,30.74
2008-03-06,40.1
2008-03-07,33.44
2008-03-08,31.46
2008-03-09,37.4
2008-03-10,36.5
2008-03-11,38.12
2008-03-12,35.96
2008-03-13,34.34
2008-03-14,30.2
2008-03-15,28.22
2008-03-16,26.24
2008-03-17,37.04
2008-03-18,41.72
2008-03-19,35.78
2008-03-20,29.12
2008-03-21,28.04
2008-03-22,32.9
2008-03-23,35.96
2008-03-24,38.84
2008-03-25,31.82
2008-03-26,28.04
2008-03-27,21.92
2008-03-28,24.98
2008-03-29,19.58
2008-03-30,18.86
2008-03-31,23.9
2008-04-01,33.44
2008-04-02,36.5
2008-04-03,38.48
2008-04-04,29.12
2008-04-05,28.94
2008-04-06,31.46
2008-04-07,26.24
2008-04-08,28.22
2008-04-09,31.28
2008-04-10,31.64
2008-04-11,41.18
2008-04-12,50.36
2008-04-13,45.68
2008-04-14,32.36
2008-04-15,24.26
2008-04-16,32.54
2008-04-17,39.74
2008-04-18,33.8
2008-04-19,21.92
2008-04-20,21.74
2008-04-21,24.08
2008-04-22,35.06
2008-04-23,31.64
2008-04-24,31.1
2008-04-25,35.78
2008-04-26,43.52
2008-04-27,45.32
2008-04-28,
2008-04-29,
2008-04-30,
2008-05-01,
2008-05-02,
2008-05-03,
2008-05-04,
2008-05-05,
2008-05-06,
2008-05-07,
2008-05-08,
2008-05-09,
2008-05-10,
2008-05-11,
2008-05-12,
2008-05-13,
2008-05-14,
2008-05-15,
2008-05-16,
2008-05-17,
2008-05-18,
2008-05-19,
2008-05-20,
2008-05-21,
2008-05-22,
2008-05-23,
2008-05-24,
2008-05-25,
2008-05-26,
2008-05-27,
2008-05-28,
2008-05-29,
2008-05-30,
2008-05-31,
2008-06-01,
2008-06-02,
2008-06-03,
2008-06-04,
2008-06-05,
2008-06-06,
2008-06-07,
2008-06-08,
2008-06-09,
2008-06-10,
2008-06-11,
2008-06-12,
2008-06-13,
2008-06-14,
2008-06-15,
2008-06-16,
2008-06-17,
2008-06-18,
2008-06-19,
2008-06-20,
2008-06-21,
2008-06-22,
2008-06-23,
2008-06-24,
2008-06-25,
2008-06-26,
2008-06-27,
2008-06-28,
2008-06-29,
2008-06-30,
2008-07-01,
2008-07-02,
2008-07-03,
2008-07-04,
2008-07-05,
2008-07-06,
2008-07-07,
2008-07-08,
2008-07-09,
2008-07-10,
2008-07-11,
2008-07-12,
2008-07-13,
2008-07-14,
2008-07-15,
2008-07-16,
2008-07-17,
2008-07-18,
2008-07-19,
2008-07-20,
2008-07-21,
2008-07-22,
2008-07-23,
2008-07-24,
2008-07-25,
2008-07-26,
2008-07-27,
2008-07-28,
2008-07-29,
2008-07-30,
2008-07-31,
2008-08-01,
2008-08-02,
2008-08-03,
2008-08-04,
2008-08-05,
2008-08-06,
2008-08-07,
2008-08-08,
2008-08-09,
2008-08-10,
2008-08-11,
2008-08-12,
2008-08-13,
2008-08-14,
2008-08-15,
2008-08-16,
2008-08-17,
2008-08-18,
2008-08-19,
2008-08-20,
2008-08-21,
2008-08-22,
2008-08-23,
2008-08-24,
2008-08-25,
2008-08-26,
2008-08-27,
2008-08-28,
2008-08-29,
2008-08-30,
2008-08-31,
2008-09-01,
2008-09-02,
2008-09-03,
2008-09-04,
2008-09-05,
2008-09-06,
2008-09-07,
2008-09-08,
2008-09-09,
2008-09-10,
2008-09-11,
2008-09-12,
2008-09-13,
2008-09-14,
2008-09-15,
2008-09-16,
2008-09-17,
2008-09-18,
2008-09-19,
2008-09-20,
2008-09-21,
2008-09-22,
2008-09-23,
2008-09-24,
2008-09-25,
2008-09-26,
2008-09-27,
2008-09-28,
2008-09-29,
2008-09-30,
2008-10-01,
2008-10-02,
2008-10-03,
2008-10-04,
2008-10-05,
2008-10-06,
2008-10-07,
2008-10-08,
2008-10-09,
2008-10-10,
2008-10-11,
2008-10-12,
2008-10-13,
2008-10-14,
2008-10-15,
2008-10-16,
2008-10-17,
2008-10-18,
2008-10-19,
2008-10-20,
2008-10-21,
2008-10-22,
2008-10-23,
2008-10-24,
2008-10-25,
2008-10-26,
2008-10-27,
2008-10-28,
2008-10-29,
2008-10-30,
2008-10-31,
2008-11-01,
2008-11-02,
2008-11-03,
2008-11-04,
2008-11-05,
2008-11-06,
2008-11-07,
2008-11-08,
2008-11-09,
2008-11-10,
2008-11-11,
2008-11-12,
2008-11-13,
2008-11-14,
2008-11-15,
2008-11-16,
2008-11-17,
2008-11-18,
2008-11-19,
2008-11-20,
2008-11-21,
2008-11-22,
2008-11-23,
2008-11-24,
2008-11-25,
2008-11-26,
2008-11-27,
2008-11-28,
2008-11-29,
2008-11-30,
2008-12-01,
2008-12-02,
2008-12-03,
2008-12-04,
2008-12-05,
2008-12-06,
2008-12-07,
2008-12-08,
2008-12-09,
2008-12-10,
2008-12-11,
2008-12-12,
2008-12-13,16.88
2008-12-14,17.6
2008-12-15,16.16
2008-12-16,11.3
2008-12-17,15.98
2008-12-18,18.68
2008-12-19,14.9
2008-12-20,21.02
2008-12-21,27.14
2008-12-22,18.68
2008-12-23,17.6
2008-12-24,23.0
2008-12-25,17.6
2008-12-26,17.78
2008-12-27,27.5
2008-12-28,31.1
2008-12-29,30.02
2008-12-30,25.16
2008-12-31,28.76
2009-01-01,32.54
2009-01-02,23.54
2009-01-03,13.82
2009-01-04,17.06
2009-01-05,29.12
2009-01-06,33.26
2009-01-07,33.08
2009-01-08,28.58
2009-01-09,26.42
2009-01-10,37.58
2009-01-11,39.38
2009-01-12,39.38
2009-01-13,46.4
2009-01-14,48.38
2009-01-15,47.84
2009-01-16,49.64
2009-01-17,46.4
2009-01-18,41.72
2009-01-19,40.64
2009-01-20,39.74
2009-01-21,37.94
2009-01-22,33.62
2009-01-23,33.44
2009-01-24,30.56
2009-01-25,22.28
2009-01-26,14.72
2009-01-27,27.68
2009-01-28,28.76
2009-01-29,36.14
2009-01-30,42.08
2009-01-31,35.06
2009-02-01,33.98
2009-02-02,42.26
2009-02-03,42.44
2009-02-04,40.46
2009-02-05,33.08
2009-02-06,30.2
2009-02-07,28.22
2009-02-08,24.44
2009-02-09,17.78
2009-02-10,17.42
2009-02-11,20.48
2009-02-12,20.84
2009-02-13,20.48
2009-02-14,21.2
2009-02-15,25.16
2009-02-16,27.14
2009-02-17,25.52
2009-02-18,26.96
2009-02-19,28.4
2009-02-20,32.9
2009-02-21,34.7
2009-02-22,32.18
2009-02-23,33.26
2009-02-24,28.76
2009-02-25,28.58
2009-02-26,23.0
2009-02-27,26.6
2009-02-28,34.34
2009-03-01,33.98
2009-03-02,31.64
2009-03-03,25.34
2009-03-04,22.46
2009-03-05,21.74
2009-03-06,23.36
2009-03-07,26.24
2009-03-08,17.6
2009-03-09,15.26
2009-03-10,22.64
2009-03-11,28.04
2009-03-12,32.72
2009-03-13,35.6
2009-03-14,30.02
2009-03-15,30.56
2009-03-16,31.64
2009-03-17,29.66
2009-03-18,36.86
2009-03-19,39.74
2009-03-20,39.2
2009-03-21,32.18
2009-03-22,20.48
2009-03-23,23.36
2009-03-24,30.92
2009-03-25,30.02
2009-03-26,33.44
2009-03-27,39.02
2009-03-28,36.32
2009-03-29,20.3
2009-03-30,28.4
2009-03-31,30.74
2009-04-01,30.56
2009-04-02,28.76
2009-04-03,20.66
2009-04-04,29.48
2009-04-05,39.2
2009-04-06,45.5
2009-04-07,41.9
2009-04-08,32.72
2009-04-09,30.02
2009-04-10,29.66
2009-04-11,32.0
2009-04-12,37.04
2009-04-13,29.66
2009-04-14,19.4
2009-04-15,26.6
2009-04-16,35.24
2009-04-17,39.02
2009-04-18,44.96
2009-04-19,51.8
2009-04-20,55.58
2009-04-21,57.2
2009-04-22,50.18
2009-04-23,34.7
2009-04-24,31.1
2009-04-25,33.08
2009-04-26,32.72
2009-04-27,32.18
2009-04-28,28.04
2009-04-29,29.3
2009-04-30,35.24
2009-05-01,36.14
2009-05-02,34.52
2009-05-03,34.52
2009-05-04,34.52
2009-05-05,39.92
2009-05-06,36.68
2009-05-07,33.98
2009-05-08,38.12
2009-05-09,42.62
2009-05-10,45.32
2009-05-11,41.36
2009-05-12,31.1
2009-05-13,35.96
2009-05-14,40.1
2009-05-15,48.56
2009-05-16,56.84
2009-05-17,62.06
2009-05-18,57.56
2009-05-19,41.54
2009-05-20,42.8
2009-05-21,51.44
2009-05-22,52.88
2009-05-23,52.52
2009-05-24,49.64
2009-05-25,50.9
2009-05-26,51.8
2009-05-27,56.66
2009-05-28,59.0
2009-05-29,59.36
2009-05-30,57.56
2009-05-31,54.68
2009-06-01,52.88
2009-06-02,47.84
2009-06-03,46.94
2009-06-04,45.5
2009-06-05,43.16
2009-06-06,45.68
2009-06-07,45.86
2009-06-08,48.2
2009-06-09,47.12
2009-06-10,43.16
2009-06-11,42.44
2009-06-12,44.96
2009-06-13,44.96
2009-06-14,47.3
2009-06-15,47.48
2009-06-16,51.44
2009-06-17,51.62
2009-06-18,51.8
2009-06-19,47.66
2009-06-20,43.16
2009-06-21,37.58
2009-06-22,45.5
2009-06-23,54.68
2009-06-24,58.46
2009-06-25,56.84
2009-06-26,55.4
2009-06-27,60.62
2009-06-28,63.14
2009-06-29,60.98
2009-06-30,60.26
2009-07-01,62.24
2009-07-02,63.5
2009-07-03,62.78
2009-07-04,63.32
2009-07-05,59.18
2009-07-06,51.08
2009-07-07,47.48
2009-07-08,45.68
2009-07-09,50.0
2009-07-10,54.14
2009-07-11,55.04
2009-07-12,49.82
2009-07-13,51.44
2009-07-14,58.46
2009-07-15,63.68
2009-07-16,64.58
2009-07-17,66.56
2009-07-18,66.02
2009-07-19,63.68
2009-07-20,66.92
2009-07-21,65.84
2009-07-22,64.76
2009-07-23,63.32
2009-07-24,63.14
2009-07-25,64.4
2009-07-26,64.94
2009-07-27,64.04
2009-07-28,66.92
2009-07-29,67.28
2009-07-30,67.1
2009-07-31,68.18
2009-08-01,66.92
2009-08-02,61.16
2009-08-03,62.6
2009-08-04,59.9
2009-08-05,54.5
2009-08-06,45.32
2009-08-07,44.06
2009-08-08,50.9
2009-08-09,55.04
2009-08-10,60.08
2009-08-11,62.24
2009-08-12,56.48
2009-08-13,50.72
2009-08-14,45.68
2009-08-15,49.46
2009-08-16,55.22
2009-08-17,57.2
2009-08-18,63.5
2009-08-19,70.16
2009-08-20,68.54
2009-08-21,63.5
2009-08-22,61.88
2009-08-23,56.84
2009-08-24,57.02
2009-08-25,57.38
2009-08-26,58.64
2009-08-27,61.52
2009-08-28,58.64
2009-08-29,56.48
2009-08-30,55.04
2009-08-31,58.28
2009-09-01,55.76
2009-09-02,58.82
2009-09-03,57.02
2009-09-04,58.28
2009-09-05,51.26
2009-09-06,42.08
2009-09-07,45.32
2009-09-08,52.52
2009-09-09,58.82
2009-09-10,61.88
2009-09-11,67.1
2009-09-12,64.76
2009-09-13,55.22
2009-09-14,47.84
2009-09-15,55.58
2009-09-16,57.56
2009-09-17,53.42
2009-09-18,60.26
2009-09-19,54.68
2009-09-20,49.64
2009-09-21,58.46
2009-09-22,64.4
2009-09-23,65.66
2009-09-24,64.58
2009-09-25,66.92
2009-09-26,64.94
2009-09-27,62.78
2009-09-28,53.96
2009-09-29,32.54
2009-09-30,32.0
2009-10-01,38.66
2009-10-02,38.3
2009-10-03,29.48
2009-10-04,27.5
2009-10-05,33.08
2009-10-06,37.94
2009-10-07,46.58
2009-10-08,46.94
2009-10-09,47.3
2009-10-10,44.24
2009-10-11,46.4
2009-10-12,40.64
2009-10-13,35.6
2009-10-14,39.92
2009-10-15,43.34
2009-10-16,50.72
2009-10-17,49.82
2009-10-18,44.06
2009-10-19,35.6
2009-10-20,38.48
2009-10-21,42.26
2009-10-22,40.64
2009-10-23,45.32
2009-10-24,40.28
2009-10-25,45.14
2009-10-26,36.86
2009-10-27,25.16
2009-10-28,26.24
2009-10-29,37.58
2009-10-30,43.52
2009-10-31,42.08
2009-11-01,40.64
2009-11-02,44.78
2009-11-03,46.58
2009-11-04,47.84
2009-11-05,39.02
2009-11-06,31.64
2009-11-07,28.94
2009-11-08,30.02
2009-11-09,30.38
2009-11-10,32.72
2009-11-11,29.66
2009-11-12,21.02
2009-11-13,22.1
2009-11-14,22.64
2009-11-15,32.9
2009-11-16,35.42
2009-11-17,29.66
2009-11-18,23.72
2009-11-19,34.16
2009-11-20,27.68
2009-11-21,22.64
2009-11-22,24.8
2009-11-23,31.1
2009-11-24,41.54
2009-11-25,41.18
2009-11-26,39.92
2009-11-27,27.86
2009-11-28,26.78
2009-11-29,35.42
2009-11-30,40.82
2009-12-01,37.4
2009-12-02,33.62
2009-12-03,35.06
2009-12-04,34.88
2009-12-05,14.54
2009-12-06,10.22
2009-12-07,5.54
2009-12-08,8.78
2009-12-09,18.86
2009-12-10,24.44
2009-12-11,28.22
2009-12-12,28.58
2009-12-13,26.42
2009-12-14,25.34
2009-12-15,28.4
2009-12-16,30.92
2009-12-17,31.64
2009-12-18,35.78
2009-12-19,40.82
2009-12-20,34.16
2009-12-21,27.68
2009-12-22,17.78
2009-12-23,24.8
2009-12-24,34.7
2009-12-25,37.22
2009-12-26,30.02
2009-12-27,26.24
2009-12-28,23.9
2009-12-29,22.28
2009-12-30,24.44
2009-12-31,26.96
2010-01-01,30.92
2010-01-02,26.6
2010-01-03,29.84
2010-01-04,34.34
2010-01-05,37.04
2010-01-06,39.74
2010-01-07,35.96
2010-01-08,34.7
2010-01-09,34.7
2010-01-10,34.88
2010-01-11,36.14
2010-01-12,32.9
2010-01-13,29.84
2010-01-14,29.12
2010-01-15,32.36
2010-01-16,31.28
2010-01-17,29.48
2010-01-18,29.48
2010-01-19,26.96
2010-01-20,25.52
2010-01-21,24.98
2010-01-22,24.26
2010-01-23,23.0
2010-01-24,24.8
2010-01-25,27.68
2010-01-26,27.86
2010-01-27,26.96
2010-01-28,29.3
2010-01-29,31.64
2010-01-30,28.76
2010-01-31,26.6
2010-02-01,26.42
2010-02-02,28.22
2010-02-03,28.4
2010-02-04,28.58
2010-02-05,29.48
2010-02-06,29.84
2010-02-07,27.86
2010-02-08,27.14
2010-02-09,27.68
2010-02-10,26.42
2010-02-11,30.02
2010-02-12,30.2
2010-02-13,33.62
2010-02-14,33.44
2010-02-15,34.88
2010-02-16,36.5
2010-02-17,38.48
2010-02-18,29.66
2010-02-19,27.86
2010-02-20,23.9
2010-02-21,22.1
2010-02-22,25.52
2010-02-23,26.06
2010-02-24,29.12
2010-02-25,29.66
2010-02-26,30.38
2010-02-27,29.66
2010-02-28,32.9
2010-03-01,35.42
2010-03-02,30.92
2010-03-03,24.26
2010-03-04,28.04
2010-03-05,28.94
2010-03-06,33.26
2010-03-07,34.7
2010-03-08,23.72
2010-03-09,18.68
2010-03-10,21.74
2010-03-11,28.58
2010-03-12,24.98
2010-03-13,21.56
2010-03-14,31.46
2010-03-15,41.18
2010-03-16,40.64
2010-03-17,37.4
2010-03-18,33.26
2010-03-19,40.82
2010-03-20,43.16
2010-03-21,33.62
2010-03-22,29.66
2010-03-23,35.6
2010-03-24,39.2
2010-03-25,25.7
2010-03-26,26.06
2010-03-27,35.42
2010-03-28,34.34
2010-03-29,33.08
2010-03-30,23.18
2010-03-31,22.28
2010-04-01,23.18
2010-04-02,23.54
2010-04-03,21.02
2010-04-04,22.82
2010-04-05,22.1
2010-04-06,27.14
2010-04-07,37.22
2010-04-08,26.06
2010-04-09,27.32
2010-04-10,33.44
2010-04-11,31.1
2010-04-12,29.3
2010-04-13,30.74
2010-04-14,32.18
2010-04-15,35.78
2010-04-16,40.1
2010-04-17,39.56
2010-04-18,45.14
2010-04-19,41.9
2010-04-20,32.9
2010-04-21,27.5
2010-04-22,36.14
2010-04-23,41.9
2010-04-24,35.42
2010-04-25,42.8
2010-04-26,42.08
2010-04-27,29.12
2010-04-28,25.7
2010-04-29,25.52
2010-04-30,29.66
2010-05-01,33.62
2010-05-02,39.02
2010-05-03,35.6
2010-05-04,31.1
2010-05-05,24.44
2010-05-06,30.56
2010-05-07,38.12
2010-05-08,37.76
2010-05-09,35.78
2010-05-10,29.48
2010-05-11,34.34
2010-05-12,39.92
2010-05-13,44.06
2010-05-14,48.02
2010-05-15,49.28
2010-05-16,47.12
2010-05-17,40.64
2010-05-18,37.58
2010-05-19,35.78
2010-05-20,31.1
2010-05-21,26.78
2010-05-22,25.34
2010-05-23,31.1
2010-05-24,33.08
2010-05-25,33.26
2010-05-26,34.16
2010-05-27,32.9
2010-05-28,34.88
2010-05-29,40.46
2010-05-30,45.68
2010-05-31,43.34
2010-06-01,43.7
2010-06-02,43.16
2010-06-03,41.36
2010-06-04,44.78
2010-06-05,45.5
2010-06-06,47.3
2010-06-07,47.3
2010-06-08,49.64
2010-06-09,42.98
2010-06-10,35.6
2010-06-11,41.54
2010-06-12,49.64
2010-06-13,53.24
2010-06-14,51.26
2010-06-15,41.0
2010-06-16,35.6
2010-06-17,42.8
2010-06-18,47.66
2010-06-19,42.98
2010-06-20,39.92
2010-06-21,48.2
2010-06-22,53.24
2010-06-23,56.3
2010-06-24,57.2
2010-06-25,56.12
2010-06-26,57.02
2010-06-27,59.36
2010-06-28,59.9
2010-06-29,53.78
2010-06-30,50.54
2010-07-01,48.02
2010-07-02,42.08
2010-07-03,46.04
2010-07-04,53.24
2010-07-05,54.32
2010-07-06,54.5
2010-07-07,61.7
2010-07-08,63.32
2010-07-09,64.58
2010-07-10,64.58
2010-07-11,63.14
2010-07-12,61.52
2010-07-13,57.74
2010-07-14,58.64
2010-07-15,66.02
2010-07-16,66.56
2010-07-17,65.66
2010-07-18,61.34
2010-07-19,59.72
2010-07-20,60.62
2010-07-21,59.0
2010-07-22,61.16
2010-07-23,63.32
2010-07-24,67.82
2010-07-25,66.38
2010-07-26,62.78
2010-07-27,60.8
2010-07-28,60.98
2010-07-29,60.44
2010-07-30,59.0
2010-07-31,56.84
2010-08-01,57.56
2010-08-02,59.18
2010-08-03,60.08
2010-08-04,61.7
2010-08-05,61.88
2010-08-06,58.82
2010-08-07,56.84
2010-08-08,57.02
2010-08-09,56.84
2010-08-10,52.16
2010-08-11,51.62
2010-08-12,56.66
2010-08-13,62.6
2010-08-14,63.14
2010-08-15,64.76
2010-08-16,66.02
2010-08-17,62.6
2010-08-18,59.72
2010-08-19,59.72
2010-08-20,59.72
2010-08-21,52.7
2010-08-22,47.3
2010-08-23,52.88
2010-08-24,64.94
2010-08-25,68.0
2010-08-26,59.72
2010-08-27,48.56
2010-08-28,40.1
2010-08-29,41.18
2010-08-30,39.56
2010-08-31,46.4
2010-09-01,52.34
2010-09-02,61.16
2010-09-03,62.78
2010-09-04,56.12
2010-09-05,44.96
2010-09-06,49.28
2010-09-07,48.92
2010-09-08,41.18
2010-09-09,38.84
2010-09-10,46.4
2010-09-11,54.68
2010-09-12,56.12
2010-09-13,54.14
2010-09-14,53.78
2010-09-15,53.6
2010-09-16,54.14
2010-09-17,51.8
2010-09-18,48.02
2010-09-19,42.44
2010-09-20,42.08
2010-09-21,44.42
2010-09-22,45.32
2010-09-23,47.3
2010-09-24,54.68
2010-09-25,60.08
2010-09-26,58.28
2010-09-27,63.32
2010-09-28,63.5
2010-09-29,62.6
2010-09-30,65.48
2010-10-01,64.22
2010-10-02,62.78
2010-10-03,51.8
2010-10-04,40.1
2010-10-05,39.56
2010-10-06,45.5
2010-10-07,44.06
2010-10-08,44.78
2010-10-09,46.94
2010-10-10,50.18
2010-10-11,44.24
2010-10-12,50.72
2010-10-13,54.5
2010-10-14,54.68
2010-10-15,51.62
2010-10-16,48.92
2010-10-17,45.32
2010-10-18,46.22
2010-10-19,50.0
2010-10-20,50.72
2010-10-21,44.24
2010-10-22,37.4
2010-10-23,33.8
2010-10-24,33.8
2010-10-25,28.04
2010-10-26,25.88
2010-10-27,28.4
2010-10-28,31.82
2010-10-29,35.78
2010-10-30,35.78
2010-10-31,35.96
2010-11-01,43.16
2010-11-02,49.82
2010-11-03,50.18
2010-11-04,52.16
2010-11-05,47.12
2010-11-06,43.52
2010-11-07,32.0
2010-11-08,24.44
2010-11-09,25.88
2010-11-10,27.86
2010-11-11,30.02
2010-11-12,31.1
2010-11-13,37.76
2010-11-14,41.9
2010-11-15,39.74
2010-11-16,33.98
2010-11-17,38.3
2010-11-18,27.86